Location: Akho
(42.3047°N, 44.1844°E)
Time: 08:31:17
(UTC+00:00)

STARLINK-1049 - Pass Details

Date: 07 June 2020
Orbit: 549 x 551 km, 53.0° (Epoch: 06 July)

Event Time Altitude Azimuth Distance (km) Brightness Sun altitude
Exits shadow 00:34:32 10° 244° (WSW) 1,795 5.6 -8.6°
Maximum altitude 00:38:35 64° 326° (NW) 609 3.9 -8.0°
Drops below altitude 10° 00:42:42 10° 49° (NE) 1,824 8.1 -7.4°
Sets 00:44:58 0° 52° (NE) 2,720 9.9 -7.1°
